EW4504 Weather Reports


Display with metric or nautical units.
time (UTC)temp
F
wind
direction
speed
MPH
gust
MPH
rain 1hr
in
rain 24hr
in
rain mn
in
humidity
%
barometer
mb
20260503200047 69 192 8.0 15.0 0.00 0.00 0.00 41 1018.1
20260503195530 69 214 5.0 13.0 0.00 0.00 0.00 42 1018.2
20260503195032 69 217 3.0 10.0 0.00 0.00 0.00 42 1018.3
20260503194545 68 277 6.0 10.0 0.00 0.00 0.00 43 1018.4
20260503194033 68 214 4.0 9.0 0.00 0.00 0.00 42 1018.5
20260503193532 68 299 3.0 11.0 0.00 0.00 0.00 40 1018.7
20260503193042 68 190 3.0 11.0 0.00 0.00 0.00 42 1018.7
20260503192531 68 311 4.0 12.0 0.00 0.00 0.00 40 1018.8
20260503192031 68 190 3.0 12.0 0.00 0.00 0.00 41 1018.9
20260503191543 68 236 5.0 10.0 0.00 0.00 0.00 40 1019.0
20260503191031 68 183 4.0 10.0 0.00 0.00 0.00 39 1019.1
20260503190530 69 194 4.0 10.0 0.00 0.00 0.00 41 1019.2
20260503190046 69 271 5.0 10.0 0.00 0.00 0.00 42 1019.3
20260503185532 68 170 3.0 11.0 0.00 0.00 0.00 42 1019.3
20260503185030 68 225 4.0 14.0 0.00 0.00 0.00 42 1019.4
20260503184551 68 186 6.0 14.0 0.00 0.00 0.00 42 1019.4
20260503184030 68 245 3.0 10.0 0.00 0.00 0.00 42 1019.4
20260503183532 67 219 5.0 10.0 0.00 0.00 0.00 43 1019.5
20260503183051 66 304 3.0 11.0 0.00 0.00 0.00 43 1019.5
20260503182531 66 79 5.0 11.0 0.00 0.00 0.00 42 1019.5
20260503182031 67 331 5.0 11.0 0.00 0.00 0.00 43 1019.6
20260503181542 66 5 3.0 9.0 0.00 0.00 0.00 43 1019.6
20260503181032 66 294 3.0 11.0 0.00 0.00 0.00 42 1019.6
20260503180530 66 350 5.0 11.0 0.00 0.00 0.00 42 1019.6
20260503180046 66 5 1.0 12.0 0.00 0.00 0.00 42 1019.7
20260503175532 65 0 3.0 12.0 0.00 0.00 0.00 42 1019.8
20260503175031 65 350 4.0 12.0 0.00 0.00 0.00 43 1019.8
20260503174540 65 40 2.0 8.0 0.00 0.00 0.00 42 1019.8
20260503174034 65 257 2.0 11.0 0.00 0.00 0.00 43 1019.9
20260503173527 65 302 4.0 11.0 0.00 0.00 0.00 41 1019.9
20260503173101 65 318 5.0 10.0 0.00 0.00 0.00 41 1020.0
20260503172529 64 330 3.0 9.0 0.00 0.00 0.00 42 1020.0
20260503172027 64 234 2.0 9.0 0.00 0.00 0.00 42 1020.1
20260503171547 64 211 3.0 9.0 0.00 0.00 0.00 43 1020.1
20260503171031 64 215 2.0 8.0 0.00 0.00 0.00 43 1020.1
20260503170530 64 304 4.0 8.0 0.00 0.00 0.00 45 1020.1
20260503150532 60 296 3.0 8.0 0.00 0.00 0.00 55 1020.7
20260503131034 52 313 1.0 5.0 0.00 0.00 0.00 76 1020.2
20260503130531 51 315 2.0 5.0 0.00 0.00 0.00 76 1020.2
20260503110530 42 0 0.0 2.0 0.00 0.00 0.00 86 1019.5
20260503081552 45 0 0.0 0.0 0.00 0.00 0.00 81 1018.2
20260503081031 45 0 0.0 0.0 0.00 0.00 0.00 80 1018.1
20260503080532 45 0 0.0 1.0 0.00 0.00 0.00 80 1018.1
20260503072532 46 0 0.0 1.0 0.00 0.00 0.00 79 1017.8
20260503072032 46 0 0.0 2.0 0.00 0.00 0.00 79 1017.7
20260503071545 46 0 0.0 2.0 0.00 0.00 0.00 79 1017.7
20260503071029 46 0 0.0 2.0 0.00 0.00 0.00 78 1017.8
20260503070534 47 0 0.0 0.0 0.00 0.00 0.00 77 1017.7
20260503055029 51 0 0.0 0.0 0.00 0.00 0.00 68 1017.8
20260503054543 51 0 0.0 1.0 0.00 0.00 0.00 68 1017.7
20260503054100 51 0 0.0 2.0 0.00 0.00 0.00 67 1017.7
20260503053535 51 0 0.0 2.0 0.00 0.00 0.00 67 1017.7
20260503053041 51 327 0.0 2.0 0.00 0.00 0.00 67 1017.6
20260503052531 51 0 0.0 3.0 0.00 0.00 0.00 67 1017.5
20260503052032 51 327 0.0 4.0 0.00 0.00 0.00 68 1017.5
20260503051540 50 326 1.0 4.0 0.00 0.00 0.00 69 1017.5
20260503051031 49 327 2.0 4.0 0.00 0.00 0.00 71 1017.5
20260503050531 49 331 1.0 3.0 0.00 0.00 0.00 72 1017.5
20260503050048 49 0 0.0 3.0 0.00 0.00 0.00 72 1017.5
20260503045531 49 0 0.0 0.0 0.00 0.00 0.00 72 1017.4
20260503045034 49 0 0.0 0.0 0.00 0.00 0.00 72 1017.4
20260503044548 49 0 0.0 0.0 0.00 0.00 0.00 71 1017.4
20260503044033 50 0 0.0 0.0 0.00 0.00 0.00 71 1017.4
20260503043532 50 0 0.0 0.0 0.00 0.00 0.00 71 1017.4
20260503043042 50 0 0.0 0.0 0.00 0.00 0.00 70 1017.3
20260503042531 51 0 0.0 0.0 0.00 0.00 0.00 69 1017.3
20260503042030 51 0 0.0 0.0 0.00 0.00 0.00 69 1017.1
20260503041543 51 0 0.0 0.0 0.00 0.00 0.00 67 1017.0
20260503041029 51 0 0.0 0.0 0.00 0.00 0.00 66 1016.9
20260503040532 51 0 0.0 0.0 0.00 0.00 0.00 65 1017.0
20260503040045 51 0 0.0 0.0 0.00 0.00 0.00 65 1017.0
20260503035535 51 0 0.0 0.0 0.00 0.00 0.00 65 1017.0
20260503035036 51 0 0.0 0.0 0.00 0.00 0.00 65 1017.0
20260503034538 51 0 0.0 0.0 0.00 0.00 0.00 65 1016.8
20260503034031 51 0 0.0 0.0 0.00 0.00 0.00 65 1017.0
20260503033528 51 0 0.0 0.0 0.00 0.00 0.00 65 1016.9
20260503033039 51 0 0.0 0.0 0.00 0.00 0.00 64 1016.8
20260503032532 52 0 0.0 0.0 0.00 0.00 0.00 64 1016.8
20260503032031 52 0 0.0 0.0 0.00 0.00 0.00 64 1016.6
20260503031550 52 0 0.0 0.0 0.00 0.00 0.00 63 1016.7
20260503031031 52 0 0.0 0.0 0.00 0.00 0.00 62 1016.7
20260503030531 53 0 0.0 0.0 0.00 0.00 0.00 62 1016.7
20260503030042 53 0 0.0 0.0 0.00 0.00 0.00 61 1016.6
20260503025533 53 0 0.0 0.0 0.00 0.00 0.00 60 1016.4
20260503025030 53 0 0.0 0.0 0.00 0.00 0.00 59 1016.4
20260503024543 53 0 0.0 0.0 0.00 0.00 0.00 58 1016.3
20260503024031 54 0 0.0 0.0 0.00 0.00 0.00 58 1016.4
20260503023531 54 0 0.0 0.0 0.00 0.00 0.00 57 1016.2
20260503023040 54 0 0.0 0.0 0.00 0.00 0.00 55 1016.1
20260503022530 55 0 0.0 0.0 0.00 0.00 0.00 55 1016.0
20260503022032 55 0 0.0 0.0 0.00 0.00 0.00 54 1016.0
20260503021548 55 0 0.0 0.0 0.00 0.00 0.00 53 1015.9
20260503021032 56 0 0.0 0.0 0.00 0.00 0.00 52 1015.9
20260503020530 56 0 0.0 0.0 0.00 0.00 0.00 52 1015.8
20260503020055 56 0 0.0 0.0 0.00 0.00 0.00 52 1015.6
20260503015529 56 0 0.0 0.0 0.00 0.00 0.00 51 1015.6
20260503015031 57 0 0.0 0.0 0.00 0.00 0.00 49 1015.6
20260503014546 57 0 0.0 0.0 0.00 0.00 0.00 49 1015.5
20260503014031 58 0 0.0 0.0 0.00 0.00 0.00 48 1015.4
20260503013533 58 0 0.0 0.0 0.00 0.00 0.00 47 1015.3
20260503013043 58 0 0.0 0.0 0.00 0.00 0.00 47 1015.3
20260503012532 59 0 0.0 2.0 0.00 0.00 0.00 46 1015.3
20260503012031 59 0 0.0 2.0 0.00 0.00 0.00 46 1015.2
20260503011600 59 0 0.0 3.0 0.00 0.00 0.00 45 1015.2
20260503011031 59 327 0.0 3.0 0.00 0.00 0.00 45 1015.2
20260503010530 59 327 1.0 4.0 0.00 0.00 0.00 44 1015.1
20260503010039 60 0 0.0 5.0 0.00 0.00 0.00 44 1015.0
20260503005531 60 327 2.0 6.0 0.00 0.00 0.00 44 1015.0
20260503005034 60 343 2.0 7.0 0.00 0.00 0.00 44 1014.9
20260503004543 60 312 3.0 7.0 0.00 0.00 0.00 43 1014.7
20260503004031 60 315 2.0 6.0 0.00 0.00 0.00 43 1014.7
20260503003530 60 337 2.0 6.0 0.00 0.00 0.00 42 1014.6
20260503003041 61 338 2.0 8.0 0.00 0.00 0.00 43 1014.5
20260503002531 61 329 2.0 9.0 0.00 0.00 0.00 42 1014.5
20260503002031 61 325 3.0 10.0 0.00 0.00 0.00 41 1014.5
20260503001557 61 338 4.0 10.0 0.00 0.00 0.00 41 1014.5
20260503001032 62 26 4.0 15.0 0.00 0.00 0.00 41 1014.3
20260503000533 62 333 4.0 15.0 0.00 0.00 0.00 41 1014.3
20260503000109 62 331 5.0 12.0 0.00 0.00 0.00 41 1014.3
20260502235528 62 347 4.0 10.0 0.00 0.00 0.00 41 1014.2
20260502235032 62 9 2.0 10.0 0.00 0.00 0.00 40 1014.0
20260502234542 63 344 4.0 10.0 0.00 0.00 0.00 40 1013.9
20260502234030 63 346 5.0 9.0 0.00 0.00 0.00 40 1013.9
20260502233530 63 342 4.0 10.0 0.00 0.00 0.00 40 1013.8
20260502233042 63 355 4.0 12.0 0.00 0.00 0.00 40 1013.8
20260502232534 63 355 5.0 13.0 0.00 0.00 0.00 39 1013.8
20260502232030 63 324 6.0 19.0 0.00 0.00 0.00 39 1013.7
20260502231556 63 312 8.0 19.0 0.00 0.00 0.00 39 1013.7
20260502231031 64 323 5.0 12.0 0.00 0.00 0.00 39 1013.6
20260502230531 64 315 5.0 12.0 0.00 0.00 0.00 38 1013.6
20260502230041 64 317 5.0 15.0 0.00 0.00 0.00 38 1013.6
20260502225530 64 352 9.0 15.0 0.00 0.00 0.00 37 1013.4
20260502225034 64 336 5.0 14.0 0.00 0.00 0.00 38 1013.5
20260502224540 64 317 6.0 16.0 0.00 0.00 0.00 37 1013.5
20260502224028 64 5 8.0 16.0 0.00 0.00 0.00 37 1013.5
20260502223528 65 355 6.0 16.0 0.00 0.00 0.00 37 1013.5
20260502223035 65 292 3.0 15.0 0.00 0.00 0.00 37 1013.5
20260502222531 65 284 6.0 12.0 0.00 0.00 0.00 36 1013.6
20260502222031 65 319 6.0 14.0 0.00 0.00 0.00 36 1013.7
20260502221546 64 328 5.0 16.0 0.00 0.00 0.00 36 1013.6
20260502221031 65 342 6.0 22.0 0.00 0.00 0.00 35 1013.6
20260502220532 65 273 11.0 22.0 0.00 0.00 0.00 35 1013.6
20260502220047 65 350 8.0 22.0 0.00 0.00 0.00 35 1013.5
20260502215532 65 321 7.0 22.0 0.00 0.00 0.00 35 1013.3
20260502215032 65 295 9.0 22.0 0.00 0.00 0.00 34 1013.3
20260502214541 66 306 9.0 19.0 0.00 0.00 0.00 34 1013.2
20260502214030 66 350 5.0 19.0 0.00 0.00 0.00 34 1013.0
20260502213531 66 319 7.0 19.0 0.00 0.00 0.00 33 1012.9
20260502213041 66 330 7.0 21.0 0.00 0.00 0.00 34 1012.8
20260502212531 66 336 7.0 21.0 0.00 0.00 0.00 35 1012.9
20260502212032 66 329 6.0 17.0 0.00 0.00 0.00 34 1012.9
20260502211544 66 320 8.0 16.0 0.00 0.00 0.00 33 1012.8
20260502211030 66 297 6.0 15.0 0.00 0.00 0.00 34 1012.8
20260502210534 67 338 6.0 15.0 0.00 0.00 0.00 34 1012.7
20260502210042 67 317 4.0 15.0 0.00 0.00 0.00 35 1012.6
20260502205531 67 334 7.0 15.0 0.00 0.00 0.00 34 1012.5
20260502205030 67 211 6.0 15.0 0.00 0.00 0.00 33 1012.4
20260502204545 68 298 5.0 15.0 0.00 0.00 0.00 34 1012.2
20260502204034 68 220 5.0 13.0 0.00 0.00 0.00 33 1012.3
20260502203531 67 331 2.0 14.0 0.00 0.00 0.00 34 1012.4
20260502203046 67 336 5.0 20.0 0.00 0.00 0.00 34 1012.3
20260502202534 68 311 3.0 20.0 0.00 0.00 0.00 35 1012.4
20260502202030 67 360 7.0 20.0 0.00 0.00 0.00 35 1012.4
20260502201547 67 245 6.0 17.0 0.00 0.00 0.00 36 1012.5
20260502201031 67 38 5.0 18.0 0.00 0.00 0.00 38 1012.4
20260502200531 67 352 8.0 18.0 0.00 0.00 0.00 38 1012.3